ChubuSat-2
1 41338U 16012B 18039.41273165 .00000335 00000-0 19433-4 0 9994
2 41338 031.0043 051.7710 0013888 238.1217 121.8067 14.99915509108483
ChubuSat-3
1 41339U 16012C 18039.44276136 .00000296 00000-0 16307-4 0 9992
2 41339 31.0104 50.3607 0013871 245.2488 114.6706 15.00107332108472
Horyu-4
1 41340U 16012D 18039.37081087 .00000507 00000-0 32110-4 0 9990
2 41340 031.0062 046.5792 0014103 255.6222 104.2848 15.00878005108529
OUFTI-1
1 41458U 16025C 18039.87285303 .00001065 00000-0 60307-4 0 9995
2 41458 98.1546 95.7910 0170253 217.2888 141.6398 15.04227942 98142
e-st@r-II
1 41459U 16025D 18039.85820818 .00000284 00000-0 19786-4 0 9997
2 41459 098.1529 095.6612 0170820 217.8939 141.0120 15.03983115098131
AAUSAT4
1 41460U 16025E 18039.88563531 .00002403 00000-0 12923-3 0 9998
2 41460 098.1482 096.0075 0163338 214.6911 144.3552 15.05262230098180
LO-87
1 41557U 16033B 18039.82516050 .00001259 00000-0 48805-4 0 9999
2 41557 97.4447 124.2542 0012404 248.9077 111.0837 15.27973317 94556
NuSat2
1 41558U 16033C 18039.81883073 .00001261 00000-0 49136-4 0 9992
2 41558 97.4475 124.3275 0011872 247.4754 112.5229 15.27804998 94544
Lapan A3
1 41603U 16040E 18039.86628753 -.00000039 00000-0 13849-5 0 9994
2 41603 97.4299 103.5989 0012720 336.5151 135.0349 15.19506398 90592
Swayam
1 41607U 16040J 18039.85501477 .00001360 00000-0 62899-4 0 9995
2 41607 97.4306 104.5503 0013071 334.5791 25.4800 15.21810821 90581
Pratham
1 41783U 16059A 18039.75513190 .00000023 00000-0 13732-4 0 9991
2 41783 098.1359 103.2783 0034581 137.4249 222.9643 14.62898881073187
AlSat 1N
1 41789U 16059G 18039.88859424 .00000063 00000-0 21159-4 0 9990
2 41789 098.1357 104.3741 0029717 129.3874 230.9951 14.64125182073243
ScatSat
1 41790U 16059H 18039.76227737 -.00000001 00000-0 11087-4 0 9997
2 41790 098.2790 089.7592 0019365 123.5000 236.8048 14.50859860072560
TY-1
1 41844U 16066D 18039.82929228 .00001023 00000-0 46551-4 0 9994
2 41844 097.4067 048.5316 0017242 123.5249 335.0690 15.22852174069340
CAS-2T
1 41845U 16066E 18039.93219647 -.00000020 00000-0 86122-5 0 9990
2 41845 098.7614 066.0556 0364876 265.4500 090.4920 14.37858377065517
Pegasus-1
1 41846U 16066F 18039.95706947 .00000201 00000-0 42359-4 0 9990
2 41846 098.7669 065.7061 0367519 267.4258 088.4816 14.37255071065483
STARS-C
1 41895U 98067KR 18039.82497413 .00210705 28816-4 48997-3 0 9990
2 41895 051.6285 259.7107 0004844 200.3374 159.7442 15.96640691065242
TO-89
1 41932U 98067KU 18039.93002562 .00018821 00000-0 16460-3 0 9997
2 41932 051.6375 277.9862 0004587 086.1926 273.9595 15.68951514060589
AOBA-V3LOX3
1 41935U 98067KX 18039.91213631 .00023505 00000-0 19012-3 0 9990
2 41935 051.6363 276.3405 0003970 092.5281 267.6171 15.70689782060707
OSNSAT
1 41939U 98067KZ 18011.28402027 .11925055 12489-4 54124-3 0 9997
2 41939 051.6147 038.9582 0001091 231.1728 128.9202 16.43639489055773
EO-88
1 42017U 17008BX 18039.88387462 .00001411 00000-0 61182-4 0 9996
2 42017 097.4652 105.6301 0008097 107.8401 252.3720 15.24014315054523
HAVELSAT
1 42700U 98067LH 18039.90790290 .00016738 00000-0 17314-3 0 9994
2 42700 051.6374 287.5730 0005611 128.1639 231.9863 15.64855649041893
SOMP2
1 42701U 98067LJ 18039.89943898 .00015388 00000-0 16329-3 0 9992
2 42701 51.6371 288.2661 0005629 127.0877 233.0633 15.64281293 41877
Columbia
1 42702U 98067LK 18039.91621083 .00184214 23496-4 60061-3 0 9990
2 42702 051.6275 273.1841 0005994 180.7844 179.3154 15.90287868042008
PHOENIX
1 42706U 98067LP 18039.95252612 .00015094 00000-0 16135-3 0 9990
2 42706 051.6372 287.8745 0001866 102.1377 257.9827 15.64120043041807
X-CubeSat
1 42707U 98067LQ 18039.91524495 .00016892 00000-0 17396-3 0 9995
2 42707 051.6352 287.5966 0002007 106.1736 253.9481 15.64970674041792
qbee
1 42708U 98067LR 18039.93943392 .00016532 00000-0 17293-3 0 9996
2 42708 051.6371 287.7716 0002038 105.5018 254.6202 15.64592038041758
ZA-AeroSat
1 42713U 98067LU 18039.94786176 .00013643 00000-0 15272-3 0 9993
2 42713 051.6364 289.3373 0002554 074.0283 286.0992 15.63034315041449
LINK
1 42714U 98067LV 18039.90290026 .00028663 00000-0 25885-3 0 9993
2 42714 051.6337 285.9943 0002472 090.2434 269.8846 15.67885605041595
UPSat
1 42716U 98067LX 18039.93852471 .00023323 00000-0 22223-3 0 9997
2 42716 051.6362 286.2679 0004240 131.6400 228.4960 15.66676590041614
SpaceCube
1 42717U 98067LY 18039.89685031 .00016316 00000-0 17140-3 0 9995
2 42717 51.6363 288.2404 0004282 128.4088 231.7292 15.64490352 40821
Hoopoe
1 42718U 98067LZ 18039.94792207 .00020008 00000-0 19982-3 0 9995
2 42718 051.6370 287.0834 0004205 128.1847 231.9527 15.65606877040846
Challenger
1 42721U 98067MA 18039.91630171 .00033144 00000-0 27534-3 0 9994
2 42721 051.6350 284.5819 0006233 118.7370 241.4254 15.69828004040577
NJUST-1
1 42722U 98067MB 18039.94410434 .00012276 00000-0 14133-3 0 9990
2 42722 051.6374 290.0657 0006933 111.8711 248.3021 15.62404017040504
UNSW-EC0
1 42723U 98067MC 18039.91700562 .00021033 00000-0 20852-3 0 9998
2 42723 051.6381 287.6389 0006400 113.1827 246.9843 15.65742560040517
DUTHsat
1 42724U 98067MD 18039.90347482 .00033636 00000-0 28781-3 0 9997
2 42724 051.6354 285.2680 0005560 120.0006 240.1543 15.69107041040480
LO-90
1 42725U 98067ME 18039.94207859 .00015949 00000-0 17353-3 0 9995
2 42725 051.6373 289.3031 0005963 114.6636 245.4980 15.63604405040430
nSIGHT1
1 42726U 98067MF 18039.91317458 .00006274 00000-0 84306-4 0 9994
2 42726 051.6392 292.8804 0006504 113.5431 246.6246 15.59353896040373
QBITO
1 42728U 98067MH 18039.92961149 .00016764 00000-0 17604-3 0 9990
2 42728 051.6393 288.4976 0003739 120.2291 239.9074 15.64477515040233
Aalto-2
1 42729U 98067MJ 18039.92422985 .00016961 00000-0 17725-3 0 9994
2 42729 051.6374 288.4361 0003675 120.2454 239.8906 15.64590784040249
SUSat
1 42730U 98067MK 18039.89940719 .00016094 00000-0 17233-3 0 9993
2 42730 051.6369 289.0118 0003762 116.7631 243.3749 15.64016295040230
i-INSPIRE II
1 42731U 98067ML 18039.95107942 .00019629 00000-0 19193-3 0 9998
2 42731 051.6362 287.0798 0006025 071.6895 288.4755 15.66143671040308
PolyITAN-2-SAU
1 42732U 98067MM 18039.90630814 .00017556 00000-0 18170-3 0 9994
2 42732 051.6368 288.2926 0006262 068.5857 291.5805 15.64796622040283
SNUSAT-1
1 42733U 98067MN 18039.90089695 .00016428 00000-0 17576-3 0 9996
2 42733 051.6370 289.0128 0006462 070.4181 289.7511 15.64006947040270
ExAlta-1
1 42734U 98067MP 18039.95661023 .00024433 00000-0 23703-3 0 9997
2 42734 051.6353 287.1155 0007532 092.9944 267.1913 15.66176787040252
